McAlester, OK

8:44 PM CST on December 15, 2019 (GMT -0600)
McAlester Regional

Weather History for KMLC - September, 2019

Change the Weather History Date:

Wednesday, September 18, 2019

  Actual Average Record
Temperature  
Mean Temperature 82 °F -  
Max Temperature 96 °F 82 °F 98 °F (1960)
Min Temperature 69 °F 62 °F 38 °F (1981)
Cooling Degree Days 17    
Growing Degree Days 32 (Base 50)    
Moisture  
Dew Point 67 °F    
Average Humidity 63    
Maximum Humidity 90    
Minimum Humidity 37    
Precipitation  
Precipitation 0.00 in - - ()
Sea Level Pressure  
Sea Level Pressure 29.93 in    
Wind  
Wind Speed 3 mph (SE)    
Max Wind Speed 8 mph    
Max Gust Speed 16 mph    
Visibility 10 miles    
Events      
Averages and records for this station are not official NWS values.
T = Trace of Precipitation, MM = Missing Value Source: NWS Daily Summary

Daily Weather History Graph

Daily Weather History Graph

Search for Another Location

Airport or City:

Astronomy

Sep. 18, 2019 Rise Set
Actual Time 7:08 AM CDT 7:25 PM CDT
Civil Twilight 6:42 AM CDT 7:51 PM CDT
Nautical Twilight 6:13 AM CDT 8:20 PM CDT
Astronomical Twilight 5:43 AM CDT 8:50 PM CDT
Moon 10:10 PM CDT (9/18) 11:03 AM CDT (9/18)
Length of Visible Light 13h 08m
Length of Day
12h 17m
Waning Gibbous, 82% of the Moon is Illuminated
Sep 18
Waning Gibbous
Sep 21
Last Quarter
Sep 28
New
Oct 5
First Quarter
Oct 13
Full

Hourly Weather History & Observations

Time (CDT) Temp. Heat Index Dew Point Humidity Pressure Visibility Wind Dir Wind Speed Gust Speed Precip Events Conditions
12:53 AM 77.0 °F - 66.0 °F 69% 29.93 in 10.0 mi ESE 3.5 mph - N/A   Clear
1:53 AM 75.9 °F - 64.9 °F 69% 29.93 in 10.0 mi ESE 3.5 mph - N/A   Clear
2:53 AM 75.0 °F - 66.0 °F 73% 29.93 in 10.0 mi ESE 3.5 mph - N/A   Clear
3:53 AM 73.0 °F - 66.0 °F 79% 29.93 in 10.0 mi Calm Calm - N/A   Mostly Cloudy
4:53 AM 71.1 °F - 66.0 °F 84% 29.92 in 10.0 mi Calm Calm - N/A   Partly Cloudy
5:53 AM 70.0 °F - 66.0 °F 87% 29.94 in 10.0 mi Calm Calm - N/A   Clear
6:53 AM 69.1 °F - 66.0 °F 90% 29.95 in 10.0 mi Calm Calm - N/A   Mostly Cloudy
7:53 AM 73.0 °F - 68.0 °F 84% 29.97 in 10.0 mi Calm Calm - N/A   Clear
8:53 AM 79.0 °F - 68.0 °F 69% 29.98 in 10.0 mi ESE 5.8 mph - N/A   Clear
9:53 AM 82.9 °F 86.5 °F 69.1 °F 63% 29.99 in 10.0 mi South 8.1 mph - N/A   Partly Cloudy
10:53 AM 86.0 °F 90.1 °F 69.1 °F 57% 29.98 in 10.0 mi Variable 5.8 mph - N/A   Clear
11:53 AM 89.1 °F 92.1 °F 66.9 °F 48% 29.97 in 10.0 mi SSE 8.1 mph 16.1 mph N/A   Clear
12:53 PM 91.0 °F 94.3 °F 66.9 °F 45% 29.96 in 10.0 mi SSE 8.1 mph - N/A   Partly Cloudy
1:53 PM 91.0 °F 93.8 °F 66.0 °F 44% 29.94 in 10.0 mi SE 5.8 mph - N/A   Scattered Clouds
2:53 PM 93.9 °F 97.0 °F 66.0 °F 40% 29.91 in 10.0 mi Variable 6.9 mph - N/A   Scattered Clouds
3:53 PM 93.9 °F 96.1 °F 64.9 °F 38% 29.88 in 10.0 mi Variable 6.9 mph - N/A   Clear
4:53 PM 95.0 °F 97.4 °F 64.9 °F 37% 29.87 in 10.0 mi Calm Calm - N/A   Scattered Clouds
5:53 PM 93.9 °F 96.1 °F 64.9 °F 38% 29.87 in 10.0 mi South 5.8 mph - N/A   Partly Cloudy
6:53 PM 90.0 °F 92.4 °F 66.0 °F 45% 29.88 in 10.0 mi South 3.5 mph - N/A   Partly Cloudy
7:53 PM 86.0 °F 89.4 °F 68.0 °F 55% 29.88 in 10.0 mi ESE 3.5 mph - N/A   Scattered Clouds
8:53 PM 82.0 °F 85.5 °F 69.1 °F 65% 29.91 in 10.0 mi SSE 5.8 mph - N/A   Mostly Cloudy
9:53 PM 80.1 °F 82.7 °F 68.0 °F 67% 29.92 in 10.0 mi SE 3.5 mph - N/A   Clear
10:53 PM 79.0 °F - 69.1 °F 72% 29.93 in 10.0 mi ESE 3.5 mph - N/A   Clear
11:53 PM 75.0 °F - 69.1 °F 82% 29.94 in 10.0 mi Calm Calm - N/A   Clear